Time,TemperatureF,DewpointF,PressureIn,WindDirection,WindDirectionDegrees,WindSpeedMPH,WindSpeedGustMPH,Humidity,HourlyPrecipIn,Conditions,Clouds,dailyrainin,SoftwareType,DateUTC
2013-06-29 00:02:00,79.3,75.6,29.86,WSW,244,0.0,1.0,88,0.00,,,0.00,meteohub,2013-06-29 04:02:00,
2013-06-29 00:05:00,79.3,75.6,29.86,WSW,244,0.0,1.0,88,0.00,,,0.00,meteohub,2013-06-29 04:05:00,
2013-06-29 00:07:00,79.3,75.6,29.86,WSW,244,0.0,1.0,88,0.00,,,0.00,meteohub,2013-06-29 04:07:00,
2013-06-29 00:12:00,79.3,75.6,29.86,WSW,244,0.0,1.0,88,0.00,,,0.00,meteohub,2013-06-29 04:12:00,
2013-06-29 00:17:00,79.3,75.6,29.86,WSW,244,0.0,1.0,88,0.00,,,0.00,meteohub,2013-06-29 04:17:00,
2013-06-29 00:23:00,79.3,75.7,29.86,WSW,244,0.0,1.0,89,0.00,,,0.00,meteohub,2013-06-29 04:23:00,
2013-06-29 00:27:00,79.2,75.6,29.86,WSW,244,0.0,1.0,89,0.00,,,0.00,meteohub,2013-06-29 04:27:00,
2013-06-29 00:32:00,79.0,75.4,29.85,WSW,244,0.0,0.0,89,0.00,,,0.00,meteohub,2013-06-29 04:32:00,
2013-06-29 00:37:00,79.0,75.4,29.85,WSW,244,0.0,0.0,89,0.00,,,0.00,meteohub,2013-06-29 04:37:00,
2013-06-29 00:42:00,79.0,75.4,29.85,WSW,244,0.0,1.0,89,0.00,,,0.00,meteohub,2013-06-29 04:42:00,
2013-06-29 00:47:00,79.0,75.7,29.85,WSW,244,0.0,1.0,90,0.00,,,0.00,meteohub,2013-06-29 04:47:00,
2013-06-29 00:52:00,79.0,75.4,29.85,WSW,244,0.0,1.0,89,0.00,,,0.00,meteohub,2013-06-29 04:52:00,
2013-06-29 00:57:00,79.0,75.4,29.85,WSW,244,0.0,1.0,89,0.00,,,0.00,meteohub,2013-06-29 04:57:00,
2013-06-29 01:02:00,79.0,75.4,29.84,WSW,244,0.0,1.0,89,0.00,,,0.00,meteohub,2013-06-29 05:02:00,
2013-06-29 01:07:00,79.2,75.6,29.84,WSW,244,0.0,1.0,89,0.00,,,0.00,meteohub,2013-06-29 05:07:00,
2013-06-29 01:12:00,79.2,75.6,29.84,WSW,244,1.0,1.0,89,0.00,,,0.00,meteohub,2013-06-29 05:12:00,
2013-06-29 01:17:00,79.0,75.4,29.84,WSW,244,1.0,1.0,89,0.00,,,0.00,meteohub,2013-06-29 05:17:00,
2013-06-29 01:22:00,79.2,75.6,29.84,WSW,244,0.0,1.0,89,0.00,,,0.00,meteohub,2013-06-29 05:22:00,
2013-06-29 01:27:00,79.2,75.4,29.83,WSW,244,1.0,1.0,88,0.00,,,0.00,meteohub,2013-06-29 05:27:00,
2013-06-29 01:32:00,79.3,75.6,29.83,WSW,244,1.0,3.0,88,0.00,,,0.00,meteohub,2013-06-29 05:32:00,
2013-06-29 01:37:00,79.5,75.4,29.83,SSW,213,1.0,3.0,87,0.00,,,0.00,meteohub,2013-06-29 05:37:00,
2013-06-29 01:42:00,79.7,75.6,29.82,SW,225,2.0,5.0,87,0.00,,,0.00,meteohub,2013-06-29 05:42:00,
2013-06-29 01:47:00,79.9,75.7,29.82,SSW,213,0.0,5.0,87,0.00,,,0.00,meteohub,2013-06-29 05:47:00,
2013-06-29 01:52:00,79.7,75.6,29.82,SW,223,2.0,5.0,87,0.00,,,0.00,meteohub,2013-06-29 05:52:00,
2013-06-29 01:57:00,79.7,75.6,29.82,SW,236,1.0,5.0,87,0.00,,,0.00,meteohub,2013-06-29 05:57:00,
2013-06-29 02:02:00,79.7,75.2,29.82,West,264,1.0,5.0,86,0.00,,,0.00,meteohub,2013-06-29 06:02:00,
2013-06-29 02:07:00,79.7,75.2,29.83,West,281,2.0,5.0,86,0.00,,,0.00,meteohub,2013-06-29 06:07:00,
2013-06-29 02:12:00,79.7,75.2,29.82,West,261,1.0,5.0,86,0.00,,,0.00,meteohub,2013-06-29 06:12:00,
2013-06-29 02:17:00,79.5,75.0,29.82,West,261,0.0,5.0,86,0.00,,,0.00,meteohub,2013-06-29 06:17:00,
2013-06-29 02:22:00,79.5,75.0,29.82,WSW,248,2.0,4.0,86,0.00,,,0.00,meteohub,2013-06-29 06:22:00,
2013-06-29 02:27:00,79.5,75.0,29.81,WSW,238,2.0,5.0,86,0.00,,,0.00,meteohub,2013-06-29 06:27:00,
2013-06-29 02:32:00,79.5,75.0,29.82,WSW,238,1.0,5.0,86,0.00,,,0.00,meteohub,2013-06-29 06:32:00,
2013-06-29 02:37:00,79.5,75.0,29.82,WSW,244,0.0,5.0,86,0.00,,,0.00,meteohub,2013-06-29 06:37:00,
2013-06-29 02:42:00,79.7,75.2,29.81,SW,235,1.0,5.0,86,0.00,,,0.00,meteohub,2013-06-29 06:42:00,
2013-06-29 02:47:00,79.9,75.0,29.81,WSW,258,4.0,5.0,85,0.00,,,0.00,meteohub,2013-06-29 06:47:00,
2013-06-29 02:52:00,79.7,74.8,29.81,WSW,241,2.0,4.0,85,0.00,,,0.00,meteohub,2013-06-29 06:52:00,
2013-06-29 02:57:00,79.7,74.8,29.81,SW,224,1.0,4.0,85,0.00,,,0.00,meteohub,2013-06-29 06:57:00,
2013-06-29 03:02:00,79.5,74.7,29.81,SW,224,1.0,4.0,85,0.00,,,0.00,meteohub,2013-06-29 07:02:00,
2013-06-29 03:07:00,79.5,74.7,29.82,SW,224,1.0,4.0,85,0.00,,,0.00,meteohub,2013-06-29 07:07:00,
2013-06-29 03:12:00,79.5,74.7,29.82,SW,224,0.0,4.0,85,0.00,,,0.00,meteohub,2013-06-29 07:12:00,
2013-06-29 03:17:00,79.3,74.8,29.82,SW,224,0.0,4.0,86,0.00,,,0.00,meteohub,2013-06-29 07:17:00,
2013-06-29 03:22:00,79.3,74.8,29.82,WSW,237,1.0,3.0,86,0.00,,,0.00,meteohub,2013-06-29 07:22:00,
2013-06-29 03:27:00,79.2,74.7,29.82,WSW,237,2.0,5.0,86,0.00,,,0.00,meteohub,2013-06-29 07:27:00,
2013-06-29 03:32:00,79.3,74.8,29.82,SW,231,3.0,5.0,86,0.00,,,0.00,meteohub,2013-06-29 07:32:00,
2013-06-29 03:37:00,79.3,74.8,29.82,WSW,252,1.0,5.0,86,0.00,,,0.00,meteohub,2013-06-29 07:37:00,
2013-06-29 03:42:00,79.5,75.0,29.82,WSW,240,1.0,5.0,86,0.00,,,0.00,meteohub,2013-06-29 07:42:00,
2013-06-29 03:47:00,79.5,75.0,29.82,WSW,240,2.0,5.0,86,0.00,,,0.00,meteohub,2013-06-29 07:47:00,
2013-06-29 03:52:00,79.5,75.0,29.82,SW,236,3.0,5.0,86,0.00,,,0.00,meteohub,2013-06-29 07:52:00,
2013-06-29 03:57:00,79.9,75.4,29.82,West,263,5.0,5.0,86,0.00,,,0.00,meteohub,2013-06-29 07:57:00,
2013-06-29 04:02:00,79.9,75.0,29.83,West,261,2.0,5.0,85,0.00,,,0.00,meteohub,2013-06-29 08:02:00,
2013-06-29 04:07:00,80.1,75.2,29.83,WSW,242,3.0,5.0,85,0.00,,,0.00,meteohub,2013-06-29 08:07:00,
2013-06-29 04:12:00,80.1,75.2,29.83,WSW,240,4.0,5.0,85,0.00,,,0.00,meteohub,2013-06-29 08:12:00,
2013-06-29 04:17:00,80.2,75.4,29.82,WSW,238,2.0,8.0,85,0.00,,,0.00,meteohub,2013-06-29 08:17:00,
2013-06-29 04:22:00,80.2,75.4,29.82,SW,228,1.0,8.0,85,0.00,,,0.00,meteohub,2013-06-29 08:22:00,
2013-06-29 04:27:00,80.2,75.4,29.82,WSW,239,4.0,8.0,85,0.00,,,0.00,meteohub,2013-06-29 08:27:00,
2013-06-29 04:32:00,80.2,75.4,29.82,SW,229,1.0,7.0,85,0.00,,,0.00,meteohub,2013-06-29 08:32:00,
2013-06-29 04:37:00,80.1,75.2,29.82,SW,229,2.0,4.0,85,0.00,,,0.00,meteohub,2013-06-29 08:37:00,
2013-06-29 04:42:00,80.1,75.2,29.83,West,261,1.0,7.0,85,0.00,,,0.00,meteohub,2013-06-29 08:42:00,
2013-06-29 04:47:00,80.2,75.4,29.83,West,263,2.0,7.0,85,0.00,,,0.00,meteohub,2013-06-29 08:47:00,
2013-06-29 04:52:00,80.2,75.4,29.83,SW,231,2.0,7.0,85,0.00,,,0.00,meteohub,2013-06-29 08:52:00,
2013-06-29 04:57:00,80.2,75.4,29.83,WSW,246,0.0,7.0,85,0.00,,,0.00,meteohub,2013-06-29 08:57:00,
2013-06-29 05:02:00,80.1,75.2,29.83,West,267,1.0,7.0,85,0.00,,,0.00,meteohub,2013-06-29 09:02:00,
2013-06-29 05:07:00,80.1,75.2,29.83,WSW,238,3.0,5.0,85,0.00,,,0.00,meteohub,2013-06-29 09:07:00,
2013-06-29 05:12:00,79.9,75.0,29.83,WSW,238,0.0,5.0,85,0.00,,,0.00,meteohub,2013-06-29 09:12:00,
2013-06-29 05:17:00,79.9,75.0,29.83,WSW,240,1.0,5.0,85,0.00,,,0.00,meteohub,2013-06-29 09:17:00,
2013-06-29 05:22:00,79.9,75.0,29.83,SW,232,1.0,5.0,85,0.00,,,0.00,meteohub,2013-06-29 09:22:00,
2013-06-29 05:27:00,80.1,75.2,29.83,SW,227,2.0,5.0,85,0.00,,,0.00,meteohub,2013-06-29 09:27:00,
2013-06-29 05:32:00,80.1,75.2,29.83,WSW,251,1.0,5.0,85,0.00,,,0.00,meteohub,2013-06-29 09:32:00,
2013-06-29 05:37:00,79.9,75.0,29.83,WSW,251,0.0,5.0,85,0.00,,,0.00,meteohub,2013-06-29 09:37:00,
2013-06-29 05:42:00,79.9,75.4,29.82,WSW,251,1.0,5.0,86,0.00,,,0.00,meteohub,2013-06-29 09:42:00,
2013-06-29 05:47:00,79.9,75.4,29.82,WSW,251,1.0,4.0,86,0.00,,,0.00,meteohub,2013-06-29 09:47:00,
2013-06-29 05:52:00,79.7,75.2,29.82,WSW,251,2.0,3.0,86,0.00,,,0.00,meteohub,2013-06-29 09:52:00,
2013-06-29 05:57:00,79.7,75.2,29.82,WSW,251,1.0,3.0,86,0.00,,,0.00,meteohub,2013-06-29 09:57:00,
2013-06-29 06:02:00,79.7,75.2,29.82,WSW,251,1.0,3.0,86,0.00,,,0.00,meteohub,2013-06-29 10:02:00,
2013-06-29 06:07:00,79.5,75.0,29.83,SW,231,4.0,4.0,86,0.00,,,0.00,meteohub,2013-06-29 10:07:00,
2013-06-29 06:12:00,79.5,75.0,29.83,WSW,256,0.0,5.0,86,0.00,,,0.00,meteohub,2013-06-29 10:12:00,
2013-06-29 06:17:00,79.5,75.0,29.83,WSW,238,0.0,5.0,86,0.00,,,0.00,meteohub,2013-06-29 10:17:00,
2013-06-29 06:22:00,79.7,74.8,29.83,WSW,238,1.0,5.0,85,0.00,,,0.00,meteohub,2013-06-29 10:22:00,
2013-06-29 06:27:00,79.9,75.0,29.83,SW,229,2.0,5.0,85,0.00,,,0.00,meteohub,2013-06-29 10:27:00,
2013-06-29 06:32:00,79.9,75.0,29.82,WSW,244,1.0,5.0,85,0.00,,,0.00,meteohub,2013-06-29 10:32:00,
2013-06-29 06:37:00,79.9,75.0,29.83,SW,232,3.0,5.0,85,0.00,,,0.00,meteohub,2013-06-29 10:37:00,
2013-06-29 06:42:00,79.9,74.7,29.83,WSW,242,1.0,5.0,84,0.00,,,0.00,meteohub,2013-06-29 10:42:00,
2013-06-29 06:47:00,79.9,75.0,29.83,WSW,242,2.0,4.0,85,0.00,,,0.00,meteohub,2013-06-29 10:47:00,
2013-06-29 06:52:00,79.9,75.0,29.83,SW,229,0.0,4.0,85,0.00,,,0.00,meteohub,2013-06-29 10:52:00,
2013-06-29 06:57:00,79.9,75.0,29.83,SW,229,0.0,4.0,85,0.00,,,0.00,meteohub,2013-06-29 10:57:00,
2013-06-29 07:02:00,79.7,74.8,29.83,SW,229,0.0,4.0,85,0.00,,,0.00,meteohub,2013-06-29 11:02:00,
2013-06-29 07:07:00,79.5,75.0,29.83,SW,229,0.0,2.0,86,0.00,,,0.00,meteohub,2013-06-29 11:07:00,
2013-06-29 07:12:00,79.5,75.0,29.83,SW,229,0.0,2.0,86,0.00,,,0.00,meteohub,2013-06-29 11:12:00,
2013-06-29 07:17:00,79.5,75.0,29.83,SSW,204,4.0,4.0,86,0.00,,,0.00,meteohub,2013-06-29 11:17:00,
2013-06-29 07:22:00,79.9,75.4,29.83,WSW,241,1.0,5.0,86,0.00,,,0.00,meteohub,2013-06-29 11:22:00,
2013-06-29 07:27:00,80.2,75.4,29.83,WSW,246,3.0,5.0,85,0.00,,,0.00,meteohub,2013-06-29 11:27:00,
2013-06-29 07:32:00,80.4,75.2,29.83,SW,221,3.0,5.0,84,0.00,,,0.00,meteohub,2013-06-29 11:32:00,
2013-06-29 07:37:00,80.4,75.2,29.83,WSW,250,1.0,5.0,84,0.00,,,0.00,meteohub,2013-06-29 11:37:00,
2013-06-29 07:42:00,80.4,75.2,29.83,WSW,257,4.0,6.0,84,0.00,,,0.00,meteohub,2013-06-29 11:42:00,
2013-06-29 07:47:00,80.8,75.2,29.83,West,267,3.0,7.0,83,0.00,,,0.00,meteohub,2013-06-29 11:47:00,
2013-06-29 07:52:00,81.1,75.6,29.83,WSW,248,4.0,7.0,83,0.00,,,0.00,meteohub,2013-06-29 11:52:00,
2013-06-29 07:57:00,81.7,75.6,29.83,WSW,240,7.0,9.0,82,0.00,,,0.00,meteohub,2013-06-29 11:57:00,
2013-06-29 08:02:00,82.0,75.6,29.83,WSW,248,4.0,9.0,81,0.00,,,0.00,meteohub,2013-06-29 12:02:00,
2013-06-29 08:07:00,82.2,75.4,29.83,SW,231,5.0,9.0,80,0.00,,,0.00,meteohub,2013-06-29 12:07:00,
2013-06-29 08:12:00,82.6,76.1,29.83,West,279,2.0,12.0,81,0.00,,,0.00,meteohub,2013-06-29 12:12:00,
2013-06-29 08:17:00,82.8,76.3,29.83,West,263,4.0,12.0,81,0.00,,,0.00,meteohub,2013-06-29 12:17:00,
2013-06-29 08:22:00,83.1,76.6,29.83,WNW,292,5.0,9.0,81,0.00,,,0.00,meteohub,2013-06-29 12:22:00,
2013-06-29 08:27:00,82.8,75.9,29.83,West,263,5.0,8.0,80,0.00,,,0.00,meteohub,2013-06-29 12:27:00,
2013-06-29 08:32:00,82.4,75.6,29.83,SSW,211,3.0,11.0,80,0.00,,,0.00,meteohub,2013-06-29 12:32:00,
2013-06-29 08:37:00,82.2,75.4,29.83,SSW,210,6.0,11.0,80,0.00,,,0.00,meteohub,2013-06-29 12:37:00,
2013-06-29 08:42:00,82.6,75.4,29.83,West,263,3.0,11.0,79,0.00,,,0.00,meteohub,2013-06-29 12:42:00,
2013-06-29 08:47:00,82.0,74.5,29.83,WSW,252,7.0,11.0,78,0.00,,,0.00,meteohub,2013-06-29 12:47:00,
2013-06-29 08:52:00,80.8,74.8,29.83,WSW,252,5.0,11.0,82,0.00,,,0.00,meteohub,2013-06-29 12:52:00,
2013-06-29 08:57:00,80.4,75.6,29.83,SW,222,4.0,10.0,85,0.01,,,0.01,meteohub,2013-06-29 12:57:00,
2013-06-29 09:02:00,80.8,76.3,29.83,NW,306,2.0,10.0,86,0.01,,,0.01,meteohub,2013-06-29 13:02:00,
2013-06-29 09:07:00,81.0,76.5,29.83,WSW,252,3.0,7.0,86,0.01,,,0.01,meteohub,2013-06-29 13:07:00,
2013-06-29 09:12:00,81.0,76.5,29.83,WSW,245,4.0,8.0,86,0.01,,,0.01,meteohub,2013-06-29 13:12:00,
2013-06-29 09:17:00,81.5,76.5,29.83,SW,228,3.0,8.0,85,0.01,,,0.01,meteohub,2013-06-29 13:17:00,
2013-06-29 09:22:00,82.0,76.6,29.83,SW,222,2.0,9.0,84,0.01,,,0.01,meteohub,2013-06-29 13:22:00,
2013-06-29 09:27:00,82.6,76.8,29.83,SSW,206,6.0,9.0,83,0.01,,,0.01,meteohub,2013-06-29 13:27:00,
2013-06-29 09:32:00,82.9,76.8,29.83,SW,230,2.0,10.0,82,0.01,,,0.01,meteohub,2013-06-29 13:32:00,
2013-06-29 09:37:00,82.9,76.5,29.84,West,268,3.0,15.0,81,0.01,,,0.01,meteohub,2013-06-29 13:37:00,
2013-06-29 09:42:00,82.6,75.7,29.83,WSW,242,4.0,15.0,80,0.01,,,0.01,meteohub,2013-06-29 13:42:00,
2013-06-29 09:47:00,82.0,74.8,29.83,WSW,254,2.0,12.0,79,0.01,,,0.01,meteohub,2013-06-29 13:47:00,
2013-06-29 09:52:00,81.3,74.8,29.83,SW,234,3.0,12.0,81,0.00,,,0.01,meteohub,2013-06-29 13:52:00,
2013-06-29 09:57:00,80.2,75.4,29.83,WNW,288,6.0,12.0,85,0.01,,,0.02,meteohub,2013-06-29 13:57:00,
2013-06-29 10:02:00,79.2,75.0,29.84,West,262,11.0,11.0,87,0.01,,,0.02,meteohub,2013-06-29 14:02:00,
2013-06-29 10:07:00,76.6,72.1,29.84,West,265,2.0,18.0,86,0.10,,,0.11,meteohub,2013-06-29 14:07:00,
2013-06-29 10:12:00,75.6,72.1,29.84,WNW,290,3.0,18.0,89,0.15,,,0.16,meteohub,2013-06-29 14:12:00,
2013-06-29 10:17:00,75.4,72.5,29.83,WSW,254,2.0,18.0,91,0.15,,,0.16,meteohub,2013-06-29 14:17:00,
2013-06-29 10:22:00,75.7,73.6,29.84,West,261,4.0,5.0,93,0.15,,,0.16,meteohub,2013-06-29 14:22:00,
2013-06-29 10:27:00,76.3,74.5,29.84,West,269,2.0,6.0,94,0.15,,,0.16,meteohub,2013-06-29 14:27:00,
2013-06-29 10:32:00,76.6,74.8,29.84,West,269,1.0,6.0,94,0.15,,,0.16,meteohub,2013-06-29 14:32:00,
2013-06-29 10:37:00,76.8,75.0,29.85,WNW,282,4.0,6.0,94,0.15,,,0.16,meteohub,2013-06-29 14:37:00,
2013-06-29 10:42:00,77.2,75.4,29.85,West,271,1.0,7.0,94,0.15,,,0.16,meteohub,2013-06-29 14:42:00,
2013-06-29 10:47:00,77.4,75.2,29.85,West,270,0.0,7.0,93,0.15,,,0.16,meteohub,2013-06-29 14:47:00,
2013-06-29 10:52:00,77.7,75.6,29.85,SW,226,2.0,7.0,93,0.15,,,0.16,meteohub,2013-06-29 14:52:00,
2013-06-29 10:57:00,78.1,75.9,29.85,WSW,243,2.0,5.0,93,0.14,,,0.16,meteohub,2013-06-29 14:57:00,
2013-06-29 11:02:00,78.3,75.7,29.85,WSW,240,1.0,5.0,92,0.13,,,0.16,meteohub,2013-06-29 15:02:00,
2013-06-29 11:07:00,78.4,75.6,29.85,ESE,121,4.0,5.0,91,0.02,,,0.16,meteohub,2013-06-29 15:07:00,
2013-06-29 11:12:00,78.6,74.8,29.85,WSW,257,4.0,13.0,88,0.00,,,0.16,meteohub,2013-06-29 15:12:00,
2013-06-29 11:17:00,78.4,74.7,29.85,West,264,4.0,13.0,88,0.00,,,0.16,meteohub,2013-06-29 15:17:00,
2013-06-29 11:22:00,78.1,74.3,29.85,WSW,242,3.0,13.0,88,0.01,,,0.17,meteohub,2013-06-29 15:22:00,
2013-06-29 11:29:00,77.4,73.9,29.87,WSW,253,4.0,10.0,89,0.01,,,0.17,meteohub,2013-06-29 15:29:00,
2013-06-29 11:35:00,76.8,73.4,29.86,WSW,250,2.0,10.0,89,0.01,,,0.17,meteohub,2013-06-29 15:35:00,
2013-06-29 11:41:00,76.6,73.4,29.85,West,263,2.0,10.0,90,0.01,,,0.17,meteohub,2013-06-29 15:41:00,
2013-06-29 11:47:00,76.6,73.8,29.86,West,263,0.0,10.0,91,0.01,,,0.17,meteohub,2013-06-29 15:47:00,
2013-06-29 11:52:00,76.6,74.1,29.86,West,263,0.0,4.0,92,0.01,,,0.17,meteohub,2013-06-29 15:52:00,
2013-06-29 11:57:00,76.6,74.5,29.86,West,263,0.0,2.0,93,0.01,,,0.17,meteohub,2013-06-29 15:57:00,
2013-06-29 12:02:00,76.8,74.7,29.86,West,263,0.0,1.0,93,0.01,,,0.17,meteohub,2013-06-29 16:02:00,
2013-06-29 12:07:00,76.8,74.3,29.86,West,263,1.0,1.0,92,0.01,,,0.17,meteohub,2013-06-29 16:07:00,
2013-06-29 12:12:00,76.6,73.8,29.85,NNE,16,1.0,5.0,91,0.01,,,0.17,meteohub,2013-06-29 16:12:00,
2013-06-29 12:17:00,76.8,73.9,29.86,WSW,237,1.0,5.0,91,0.01,,,0.17,meteohub,2013-06-29 16:17:00,
2013-06-29 12:22:00,77.2,74.7,29.85,WSW,237,1.0,5.0,92,0.00,,,0.17,meteohub,2013-06-29 16:22:00,
2013-06-29 12:27:00,77.5,75.0,29.85,WSW,237,0.0,5.0,92,0.00,,,0.17,meteohub,2013-06-29 16:27:00,
2013-06-29 12:32:00,77.7,75.2,29.86,West,268,1.0,5.0,92,0.00,,,0.17,meteohub,2013-06-29 16:32:00,
2013-06-29 12:37:00,77.9,74.7,29.85,SW,227,3.0,6.0,90,0.00,,,0.17,meteohub,2013-06-29 16:37:00,
2013-06-29 12:42:00,78.3,75.4,29.85,SW,227,0.0,6.0,91,0.01,,,0.18,meteohub,2013-06-29 16:42:00,
2013-06-29 12:47:00,78.4,75.9,29.84,SW,227,0.0,6.0,92,0.01,,,0.18,meteohub,2013-06-29 16:47:00,
2013-06-29 12:52:00,78.3,75.7,29.84,SW,227,1.0,5.0,92,0.01,,,0.18,meteohub,2013-06-29 16:52:00,
2013-06-29 12:57:00,78.4,75.6,29.84,WSW,247,3.0,3.0,91,0.01,,,0.18,meteohub,2013-06-29 16:57:00,
2013-06-29 13:02:00,79.0,76.1,29.84,WSW,247,0.0,4.0,91,0.01,,,0.18,meteohub,2013-06-29 17:02:00,
2013-06-29 13:07:00,79.3,75.7,29.84,SW,229,4.0,5.0,89,0.01,,,0.18,meteohub,2013-06-29 17:07:00,
2013-06-29 13:12:00,79.9,75.7,29.83,WSW,242,1.0,6.0,87,0.01,,,0.18,meteohub,2013-06-29 17:12:00,
2013-06-29 13:17:00,80.4,76.5,29.83,WSW,241,2.0,6.0,88,0.01,,,0.18,meteohub,2013-06-29 17:17:00,
2013-06-29 13:22:00,80.6,76.3,29.83,SW,233,2.0,6.0,87,0.01,,,0.18,meteohub,2013-06-29 17:22:00,
2013-06-29 13:27:00,80.8,76.5,29.83,WSW,247,2.0,8.0,87,0.01,,,0.18,meteohub,2013-06-29 17:27:00,
2013-06-29 13:32:00,81.1,77.5,29.83,West,276,1.0,8.0,89,0.01,,,0.18,meteohub,2013-06-29 17:32:00,
2013-06-29 13:37:00,81.7,77.7,29.83,West,276,1.0,8.0,88,0.01,,,0.18,meteohub,2013-06-29 17:37:00,
2013-06-29 13:42:00,81.3,77.0,29.83,WNW,290,1.0,6.0,87,0.00,,,0.18,meteohub,2013-06-29 17:42:00,
2013-06-29 13:47:00,81.1,77.2,29.83,WNW,290,0.0,6.0,88,0.00,,,0.18,meteohub,2013-06-29 17:47:00,
2013-06-29 13:52:00,81.1,76.8,29.83,SSW,201,5.0,6.0,87,0.00,,,0.18,meteohub,2013-06-29 17:52:00,
2013-06-29 13:57:00,80.1,76.1,29.83,SW,236,2.0,8.0,88,0.01,,,0.19,meteohub,2013-06-29 17:57:00,
2013-06-29 14:02:00,80.1,76.5,29.84,South,190,1.0,9.0,89,0.01,,,0.19,meteohub,2013-06-29 18:02:00,
2013-06-29 14:07:00,80.2,76.6,29.84,South,190,0.0,9.0,89,0.01,,,0.19,meteohub,2013-06-29 18:07:00,
2013-06-29 14:12:00,80.4,76.1,29.84,WSW,247,3.0,6.0,87,0.01,,,0.19,meteohub,2013-06-29 18:12:00,
2013-06-29 14:17:00,81.1,77.2,29.83,SSW,194,3.0,5.0,88,0.01,,,0.19,meteohub,2013-06-29 18:17:00,
2013-06-29 14:22:00,81.3,77.4,29.83,SW,215,0.0,5.0,88,0.01,,,0.19,meteohub,2013-06-29 18:22:00,
2013-06-29 14:27:00,81.1,75.9,29.83,WSW,250,10.0,10.0,84,0.01,,,0.19,meteohub,2013-06-29 18:27:00,
2013-06-29 14:32:00,77.5,73.0,29.85,SW,232,12.0,26.0,86,0.02,,,0.20,meteohub,2013-06-29 18:32:00,
2013-06-29 14:37:00,75.4,72.3,29.85,NW,308,1.0,26.0,90,0.10,,,0.28,meteohub,2013-06-29 18:37:00,
2013-06-29 14:42:00,74.3,71.2,29.84,WSW,248,1.0,26.0,90,0.24,,,0.42,meteohub,2013-06-29 18:42:00,
2013-06-29 14:47:00,73.6,71.1,29.83,WSW,248,0.0,19.0,92,0.29,,,0.47,meteohub,2013-06-29 18:47:00,
2013-06-29 14:52:00,73.6,71.4,29.83,WSW,248,0.0,4.0,93,0.29,,,0.47,meteohub,2013-06-29 18:52:00,
2013-06-29 14:57:00,73.6,71.8,29.83,WSW,248,1.0,4.0,94,0.28,,,0.47,meteohub,2013-06-29 18:57:00,
2013-06-29 15:02:00,73.8,72.3,29.83,WSW,248,0.0,2.0,95,0.28,,,0.47,meteohub,2013-06-29 19:02:00,
2013-06-29 15:07:00,74.1,72.7,29.83,WSW,248,0.0,2.0,95,0.28,,,0.47,meteohub,2013-06-29 19:07:00,
2013-06-29 15:12:00,74.7,73.4,29.82,WSW,248,0.0,2.0,96,0.28,,,0.47,meteohub,2013-06-29 19:12:00,
2013-06-29 15:17:00,74.8,73.6,29.82,WSW,248,1.0,2.0,96,0.28,,,0.47,meteohub,2013-06-29 19:17:00,
2013-06-29 15:22:00,75.4,74.1,29.82,WSW,248,1.0,2.0,96,0.28,,,0.47,meteohub,2013-06-29 19:22:00,
2013-06-29 15:27:00,75.4,74.1,29.82,WSW,248,0.0,3.0,96,0.28,,,0.47,meteohub,2013-06-29 19:27:00,
2013-06-29 15:32:00,75.7,74.5,29.82,WSW,247,1.0,3.0,96,0.25,,,0.47,meteohub,2013-06-29 19:32:00,
2013-06-29 15:37:00,76.1,74.8,29.82,WSW,247,0.0,3.0,96,0.10,,,0.47,meteohub,2013-06-29 19:37:00,
2013-06-29 15:42:00,76.6,75.4,29.82,WSW,244,1.0,3.0,96,0.04,,,0.47,meteohub,2013-06-29 19:42:00,
2013-06-29 15:47:00,77.0,75.7,29.82,WSW,244,0.0,3.0,96,0.00,,,0.47,meteohub,2013-06-29 19:47:00,
2013-06-29 15:52:00,77.2,75.9,29.82,NE,49,1.0,4.0,96,0.00,,,0.47,meteohub,2013-06-29 19:52:00,
2013-06-29 15:57:00,77.2,75.9,29.82,NE,34,0.0,4.0,96,0.00,,,0.47,meteohub,2013-06-29 19:57:00,
2013-06-29 16:02:00,76.8,75.2,29.81,NW,307,3.0,4.0,95,0.00,,,0.47,meteohub,2013-06-29 20:02:00,
2013-06-29 16:07:00,76.6,75.0,29.81,SW,225,0.0,5.0,95,0.00,,,0.47,meteohub,2013-06-29 20:07:00,
2013-06-29 16:12:00,76.6,75.0,29.80,SW,225,0.0,5.0,95,0.00,,,0.47,meteohub,2013-06-29 20:12:00,
2013-06-29 16:17:00,76.5,74.8,29.80,SW,225,0.0,5.0,95,0.00,,,0.47,meteohub,2013-06-29 20:17:00,
2013-06-29 16:22:00,76.6,75.0,29.80,SW,225,0.0,4.0,95,0.00,,,0.47,meteohub,2013-06-29 20:22:00,
2013-06-29 16:27:00,76.8,75.2,29.80,SW,225,0.0,2.0,95,0.00,,,0.47,meteohub,2013-06-29 20:27:00,
2013-06-29 16:32:00,77.2,75.6,29.80,SW,225,0.0,2.0,95,0.00,,,0.47,meteohub,2013-06-29 20:32:00,
2013-06-29 16:37:00,77.4,75.7,29.79,SW,225,1.0,2.0,95,0.00,,,0.47,meteohub,2013-06-29 20:37:00,
2013-06-29 16:42:00,77.5,75.9,29.79,SW,225,0.0,1.0,95,0.00,,,0.47,meteohub,2013-06-29 20:42:00,
2013-06-29 16:47:00,77.9,76.3,29.79,SW,225,2.0,2.0,95,0.00,,,0.47,meteohub,2013-06-29 20:47:00,
2013-06-29 16:52:00,78.3,76.6,29.79,WSW,244,2.0,3.0,95,0.00,,,0.47,meteohub,2013-06-29 20:52:00,
2013-06-29 16:57:00,78.1,75.9,29.79,West,263,3.0,4.0,93,0.00,,,0.47,meteohub,2013-06-29 20:57:00,
2013-06-29 17:02:00,78.1,74.8,29.79,West,266,1.0,6.0,90,0.00,,,0.47,meteohub,2013-06-29 21:02:00,
2013-06-29 17:07:00,78.1,74.8,29.79,WSW,248,0.0,6.0,90,0.00,,,0.47,meteohub,2013-06-29 21:07:00,
2013-06-29 17:12:00,78.3,74.7,29.78,WSW,240,1.0,6.0,89,0.00,,,0.47,meteohub,2013-06-29 21:12:00,
2013-06-29 17:17:00,78.3,74.5,29.78,West,265,1.0,6.0,88,0.00,,,0.47,meteohub,2013-06-29 21:17:00,
2013-06-29 17:22:00,78.4,74.8,29.78,WSW,237,0.0,4.0,89,0.00,,,0.47,meteohub,2013-06-29 21:22:00,
2013-06-29 17:27:00,78.4,74.8,29.78,WNW,286,0.0,4.0,89,0.00,,,0.47,meteohub,2013-06-29 21:27:00,
2013-06-29 17:32:00,78.8,75.9,29.78,WNW,286,0.0,4.0,91,0.00,,,0.47,meteohub,2013-06-29 21:32:00,
2013-06-29 17:37:00,79.0,75.7,29.78,WNW,286,0.0,3.0,90,0.00,,,0.47,meteohub,2013-06-29 21:37:00,
2013-06-29 17:42:00,79.3,76.1,29.78,SW,232,0.0,2.0,90,0.00,,,0.47,meteohub,2013-06-29 21:42:00,
2013-06-29 17:47:00,79.5,75.6,29.78,West,267,2.0,3.0,88,0.00,,,0.47,meteohub,2013-06-29 21:47:00,
2013-06-29 17:52:00,79.9,75.9,29.78,WSW,240,0.0,4.0,88,0.00,,,0.47,meteohub,2013-06-29 21:52:00,
2013-06-29 17:57:00,80.1,75.9,29.78,SW,235,2.0,4.0,87,0.00,,,0.47,meteohub,2013-06-29 21:57:00,
2013-06-29 18:02:00,80.1,75.9,29.79,SW,230,2.0,4.0,87,0.00,,,0.47,meteohub,2013-06-29 22:02:00,
2013-06-29 18:07:00,80.2,75.7,29.78,West,261,3.0,8.0,86,0.00,,,0.47,meteohub,2013-06-29 22:07:00,
2013-06-29 18:12:00,80.2,75.7,29.79,West,264,1.0,8.0,86,0.00,,,0.47,meteohub,2013-06-29 22:12:00,
2013-06-29 18:17:00,80.2,75.4,29.79,SW,236,4.0,8.0,85,0.00,,,0.47,meteohub,2013-06-29 22:17:00,
2013-06-29 18:22:00,80.1,75.2,29.79,West,265,1.0,4.0,85,0.00,,,0.47,meteohub,2013-06-29 22:22:00,
2013-06-29 18:27:00,80.1,75.9,29.78,West,265,1.0,4.0,87,0.00,,,0.47,meteohub,2013-06-29 22:27:00,
2013-06-29 18:32:00,80.2,75.7,29.79,WSW,238,4.0,4.0,86,0.00,,,0.47,meteohub,2013-06-29 22:32:00,
2013-06-29 18:37:00,80.6,76.3,29.78,WSW,243,2.0,6.0,87,0.00,,,0.47,meteohub,2013-06-29 22:37:00,
2013-06-29 18:42:00,81.1,76.3,29.79,West,264,2.0,7.0,85,0.00,,,0.47,meteohub,2013-06-29 22:42:00,
2013-06-29 18:47:00,81.5,76.3,29.78,WSW,255,4.0,7.0,84,0.00,,,0.47,meteohub,2013-06-29 22:47:00,
2013-06-29 18:52:00,81.5,76.3,29.79,NW,314,1.0,7.0,84,0.00,,,0.47,meteohub,2013-06-29 22:52:00,
2013-06-29 18:57:00,81.5,75.9,29.78,SW,232,2.0,7.0,83,0.00,,,0.47,meteohub,2013-06-29 22:57:00,
2013-06-29 19:02:00,81.3,76.1,29.79,SW,232,3.0,7.0,84,0.00,,,0.47,meteohub,2013-06-29 23:02:00,
2013-06-29 19:07:00,81.5,76.5,29.79,West,266,3.0,6.0,85,0.00,,,0.47,meteohub,2013-06-29 23:07:00,
2013-06-29 19:12:00,81.7,76.3,29.78,WSW,246,3.0,6.0,84,0.00,,,0.47,meteohub,2013-06-29 23:12:00,
2013-06-29 19:17:00,81.3,75.4,29.78,West,275,3.0,6.0,82,0.00,,,0.47,meteohub,2013-06-29 23:17:00,
2013-06-29 19:22:00,81.1,75.6,29.78,WSW,245,4.0,6.0,83,0.00,,,0.47,meteohub,2013-06-29 23:22:00,
2013-06-29 19:27:00,81.1,75.6,29.78,WSW,256,3.0,6.0,83,0.00,,,0.47,meteohub,2013-06-29 23:27:00,
2013-06-29 19:32:00,81.0,75.0,29.79,West,277,3.0,6.0,82,0.00,,,0.47,meteohub,2013-06-29 23:32:00,
2013-06-29 19:37:00,80.8,74.8,29.79,SW,231,5.0,6.0,82,0.00,,,0.47,meteohub,2013-06-29 23:37:00,
2013-06-29 19:42:00,80.6,75.0,29.79,WNW,288,2.0,8.0,83,0.00,,,0.47,meteohub,2013-06-29 23:42:00,
2013-06-29 19:47:00,80.2,75.0,29.79,WSW,244,2.0,8.0,84,0.00,,,0.47,meteohub,2013-06-29 23:47:00,
2013-06-29 19:52:00,80.2,75.0,29.79,WSW,254,4.0,8.0,84,0.00,,,0.47,meteohub,2013-06-29 23:52:00,
2013-06-29 19:57:00,80.1,75.2,29.79,WSW,252,2.0,6.0,85,0.00,,,0.47,meteohub,2013-06-29 23:57:00,
2013-06-29 20:02:00,79.9,74.7,29.79,SW,229,3.0,6.0,84,0.00,,,0.47,meteohub,2013-06-30 00:02:00,
2013-06-29 20:07:00,79.9,75.0,29.80,WSW,246,0.0,6.0,85,0.00,,,0.47,meteohub,2013-06-30 00:07:00,
2013-06-29 20:12:00,79.9,75.0,29.79,WSW,246,0.0,6.0,85,0.00,,,0.47,meteohub,2013-06-30 00:12:00,
2013-06-29 20:17:00,80.1,75.2,29.79,WSW,246,0.0,6.0,85,0.00,,,0.47,meteohub,2013-06-30 00:17:00,
2013-06-29 20:22:00,80.2,75.4,29.80,WSW,246,0.0,3.0,85,0.00,,,0.47,meteohub,2013-06-30 00:22:00,
2013-06-29 20:27:00,80.2,75.4,29.79,WSW,246,0.0,3.0,85,0.00,,,0.47,meteohub,2013-06-30 00:27:00,
2013-06-29 20:32:00,80.2,75.7,29.80,WSW,246,0.0,1.0,86,0.00,,,0.47,meteohub,2013-06-30 00:32:00,
2013-06-29 20:37:00,79.7,75.2,29.80,WSW,246,0.0,1.0,86,0.00,,,0.47,meteohub,2013-06-30 00:37:00,
2013-06-29 20:42:00,79.3,75.2,29.80,WSW,246,0.0,1.0,87,0.00,,,0.47,meteohub,2013-06-30 00:42:00,
2013-06-29 20:47:00,79.2,75.4,29.79,WSW,246,0.0,1.0,88,0.00,,,0.47,meteohub,2013-06-30 00:47:00,
2013-06-29 20:52:00,79.0,75.4,29.80,WSW,246,0.0,1.0,89,0.00,,,0.47,meteohub,2013-06-30 00:52:00,
2013-06-29 20:57:00,79.0,75.4,29.80,WSW,246,0.0,1.0,89,0.00,,,0.47,meteohub,2013-06-30 00:57:00,
2013-06-29 21:02:00,79.0,75.4,29.80,WSW,246,0.0,1.0,89,0.00,,,0.47,meteohub,2013-06-30 01:02:00,
2013-06-29 21:07:00,78.8,75.2,29.80,WSW,246,0.0,1.0,89,0.00,,,0.47,meteohub,2013-06-30 01:07:00,
2013-06-29 21:14:00,78.6,75.0,29.81,WSW,246,0.0,1.0,89,0.00,,,0.47,meteohub,2013-06-30 01:14:00,
2013-06-29 21:20:00,78.4,74.8,29.81,WSW,246,0.0,2.0,89,0.00,,,0.47,meteohub,2013-06-30 01:20:00,
2013-06-29 21:27:00,78.4,74.8,29.81,WSW,246,0.0,2.0,89,0.00,,,0.47,meteohub,2013-06-30 01:27:00,
2013-06-29 21:32:00,78.4,74.8,29.81,WSW,246,0.0,2.0,89,0.00,,,0.47,meteohub,2013-06-30 01:32:00,
2013-06-29 21:37:00,78.4,75.2,29.81,WSW,246,0.0,1.0,90,0.00,,,0.47,meteohub,2013-06-30 01:37:00,
2013-06-29 21:42:00,78.4,74.8,29.81,WSW,246,0.0,1.0,89,0.00,,,0.47,meteohub,2013-06-30 01:42:00,
2013-06-29 21:47:00,78.4,74.8,29.81,WSW,246,0.0,2.0,89,0.00,,,0.47,meteohub,2013-06-30 01:47:00,
2013-06-29 21:52:00,78.4,74.8,29.81,WSW,246,0.0,2.0,89,0.00,,,0.47,meteohub,2013-06-30 01:52:00,
2013-06-29 21:57:00,78.3,75.0,29.82,WSW,246,0.0,2.0,90,0.00,,,0.47,meteohub,2013-06-30 01:57:00,
2013-06-29 22:02:00,78.3,75.0,29.82,WSW,246,0.0,1.0,90,0.00,,,0.47,meteohub,2013-06-30 02:02:00,
2013-06-29 22:07:00,78.1,74.8,29.82,WSW,246,0.0,1.0,90,0.00,,,0.47,meteohub,2013-06-30 02:07:00,
2013-06-29 22:12:00,77.9,75.0,29.83,WSW,246,0.0,2.0,91,0.00,,,0.47,meteohub,2013-06-30 02:12:00,
2013-06-29 22:17:00,77.7,74.8,29.82,WSW,246,0.0,2.0,91,0.00,,,0.47,meteohub,2013-06-30 02:17:00,
2013-06-29 22:22:00,78.1,75.2,29.82,WSW,246,0.0,2.0,91,0.00,,,0.47,meteohub,2013-06-30 02:22:00,
2013-06-29 22:27:00,78.3,75.4,29.82,WSW,246,0.0,1.0,91,0.00,,,0.47,meteohub,2013-06-30 02:27:00,
2013-06-29 22:32:00,78.3,75.0,29.82,WSW,246,0.0,1.0,90,0.00,,,0.47,meteohub,2013-06-30 02:32:00,
2013-06-29 22:37:00,78.4,75.2,29.82,WSW,246,0.0,1.0,90,0.00,,,0.47,meteohub,2013-06-30 02:37:00,
2013-06-29 22:42:00,78.3,75.0,29.83,WSW,246,0.0,1.0,90,0.00,,,0.47,meteohub,2013-06-30 02:42:00,
2013-06-29 22:47:00,78.1,75.2,29.83,WSW,246,0.0,1.0,91,0.00,,,0.47,meteohub,2013-06-30 02:47:00,
2013-06-29 22:52:00,78.1,75.2,29.83,WSW,246,0.0,1.0,91,0.00,,,0.47,meteohub,2013-06-30 02:52:00,
2013-06-29 22:57:00,77.7,74.8,29.83,WSW,246,0.0,1.0,91,0.00,,,0.47,meteohub,2013-06-30 02:57:00,
2013-06-29 23:02:00,77.5,74.7,29.83,WSW,246,0.0,0.0,91,0.00,,,0.47,meteohub,2013-06-30 03:02:00,
2013-06-29 23:07:00,77.5,75.0,29.83,WSW,246,0.0,0.0,92,0.00,,,0.47,meteohub,2013-06-30 03:07:00,
2013-06-29 23:12:00,77.4,74.8,29.83,WSW,246,0.0,0.0,92,0.00,,,0.47,meteohub,2013-06-30 03:12:00,
2013-06-29 23:17:00,77.4,74.8,29.83,WSW,246,0.0,0.0,92,0.00,,,0.47,meteohub,2013-06-30 03:17:00,
2013-06-29 23:21:00,77.4,74.8,29.83,WSW,246,0.0,0.0,92,0.00,,,0.47,meteohub,2013-06-30 03:21:00,
2013-06-29 23:27:00,77.4,75.2,29.83,WSW,246,0.0,1.0,93,0.00,,,0.47,meteohub,2013-06-30 03:27:00,
2013-06-29 23:32:00,77.4,75.2,29.82,WSW,246,0.0,1.0,93,0.00,,,0.47,meteohub,2013-06-30 03:32:00,
2013-06-29 23:37:00,77.2,75.0,29.82,WSW,246,0.0,1.0,93,0.00,,,0.47,meteohub,2013-06-30 03:37:00,
2013-06-29 23:42:00,77.2,75.0,29.82,WSW,246,0.0,1.0,93,0.00,,,0.47,meteohub,2013-06-30 03:42:00,
2013-06-29 23:47:00,76.8,74.7,29.82,WSW,246,0.0,1.0,93,0.00,,,0.47,meteohub,2013-06-30 03:47:00,
2013-06-29 23:52:00,76.6,74.5,29.83,WSW,246,0.0,1.0,93,0.00,,,0.47,meteohub,2013-06-30 03:52:00,
2013-06-29 23:57:00,76.6,74.5,29.83,WSW,246,0.0,0.0,93,0.00,,,0.47,meteohub,2013-06-30 03:57:00,